Temperature
16 16 15 15 15 15 15 15 15 15 15 15 14 14 14 14 14 14 14 14 14 13 13 13 13 13 13 13 13 13 12 12 12 12 11 11 11 11 11 11 11 11 11
16 16 15 15 15 15 15 15 15 15 15 15 14 14 14 14 14 14 14 14 14 13 13 13 13 13 13 13 12 12 12 12 12 12 11 11 11 11 11 10 10 10 11
16 16 15 15 15 15 15 15 15 15 14 14 14 14 14 14 14 14 14 14 13 13 13 13 13 13 13 13 12 12 12 12 12 12 11 11 11 11 10 10 10 10 10
15 15 15 15 15 15 15 15 14 14 14 14 14 14 14 14 14 14 14 14 13 13 13 13 13 13 13 13 12 12 12 12 12 11 11 11 11 10 10 10 10 10 10
15 15 15 15 14 14 14 14 14 14 14 14 14 14 14 14 14 14 13 13 13 13 13 13 13 13 13 13 12 12 12 12 11 11 11 11 10 10 10 10 10 10 10
15 15 15 14 14 14 14 14 14 14 14 14 14 14 14 14 14 13 13 13 13 13 13 13 13 13 12 12 12 12 12 12 11 11 11 11 11 10 10 10 10 9 9
15 15 14 14 14 14 14 14 14 14 14 13 13 13 14 13 13 13 13 13 13 13 12 12 12 12 12 12 12 12 11 11 11 11 11 11 11 11 10 10 10 10 9
14 14 14 14 14 14 13 13 13 13 13 13 13 13 13 13 13 13 13 13 12 12 12 12 12 12 12 12 12 11 11 11 11 11 11 11 11 10 10 10 10 9 9
14 14 14 14 14 13 13 13 13 13 13 13 13 13 12 13 13 13 12 12 12 12 12 12 12 12 12 12 11 11 11 11 11 10 10 10 10 10 10 10 9 9 9
14 14 13 13 13 13 13 13 13 12 12 12 12 12 12 12 12 12 12 12 12 12 12 11 11 11 11 11 11 11 11 11 10 10 10 10 10 10 10 9 9 9 9
13 13 13 13 13 13 13 13 12 12 12 12 12 12 12 12 12 12 12 11 11 11 11 11 11 11 11 11 11 11 11 10 10 10 10 10 10 10 9 9 9 9 9
13 13 13 12 12 12 12 12 12 12 11 11 11 11 11 11 11 11 11 11 11 11 11 11 11 11 11 11 11 11 10 10 10 10 9 9 9 9 9 9 9 9 8
12 12 12 12 12 12 12 12 11 11 11 11 11 11 11 11 11 11 11 11 11 11 11 11 11 11 11 10 10 10 10 10 10 9 9 9 9 9 9 9 9 8 8
12 12 12 12 11 11 11 11 11 11 11 11 11 11 10 10 11 11 11 10 10 10 10 10 10 10 10 10 10 10 10 10 10 9 9 9 9 9 9 9 8 8 8
11 11 11 11 11 11 11 10 11 11 11 11 11 10 10 10 10 10 10 10 10 10 10 10 10 10 10 10 9 9 9 9 9 9 9 9 9 8 8 8 8 8 8
10 10 10 10 10 10 10 10 10 10 10 10 10 10 10 10 10 10 10 10 10 9 9 9 9 9 9 9 9 9 9 9 9 9 9 9 8 8 8 8 8 8 7
10 10 10 10 9 9 9 9 9 9 9 9 9 9 9 9 9 9 9 9 9 9 9 9 9 9 9 9 9 9 9 9 9 9 8 8 8 8 8 8 7 7 7
9 9 9 9 9 9 9 9 9 9 9 9 9 9 9 9 9 9 9 9 8 8 8 8 8 8 8 8 8 8 8 8 8 8 8 8 8 7 7 7 7 7 7
8 8 8 8 8 8 8 8 8 8 8 8 9 9 9 9 9 8 8 8 8 8 8 8 8 8 8 8 8 8 8 8 8 8 8 7 7 7 7 7 7 7 7
8 8 8 8 8 8 8 8 8 8 8 8 8 8 8 8 8 8 8 8 8 8 7 7 7 7 7 7 7 7 7 7 7 7 7 7 7 7 7 7 7 7 6
7 7 7 7 7 7 7 7 7 7 7 7 7 7 8 8 8 8 8 7 7 7 7 7 7 7 7 7 7 7 7 7 7 7 7 7 7 6 6 6 6 6 6
7 7 7 7 7 7 7 7 7 7 7 7 7 7 7 7 7 7 7 7 7 7 7 7 6 6 7 7 6 6 6 6 6 6 6 6 6 6 6 6 6 5 5
6 6 6 6 6 6 6 6 6 6 6 6 6 6 6 6 6 6 6 6 6 6 6 6 6 6 6 6 6 6 6 6 6 6 6 6 6 5 5 5 5 5 5
6 6 6 6 6 6 6 6 6 6 6 6 6 6 6 6 6 6 6 6 6 6 6 6 6 6 6 5 5 6 5 5 5 5 5 5 5 5 5 5 5 5 4
5 5 5 5 5 5 5 5 5 5 5 5 5 5 5 5 5 5 5 5 5 5 5 5 5 5 5 5 5 5 5 5 5 5 5 5 5 5 4 4 4 4 4
5 5 5 5 5 5 5 5 5 5 5 5 4 5 5 5 5 5 5 5 5 5 5 5 5 5 5 5 4 5 5 5 5 5 5 4 4 4 4 4 4 4 4
Wind_Speed
4 4 4 3 3 4 3 3 3 2 2 3 4 4 4 4 4 4 4 3 2 2 2 2 2 1 1 1 1 1 1 2 2 1 1 2 3 3 5 5 6 6 5
3 3 3 3 3 4 3 3 3 3 3 2 2 3 3 3 4 4 4 4 3 3 3 3 3 2 2 1 1 1 1 1 3 3 2 2 2 3 4 4 4 4 5
3 2 2 3 3 3 3 3 3 2 3 3 2 2 2 2 3 3 4 4 4 4 4 4 4 4 3 2 2 2 2 2 2 3 2 2 1 2 3 2 3 3 3
2 3 3 3 3 3 3 3 2 2 2 2 3 3 3 3 3 3 3 4 4 4 3 3 3 4 4 4 3 3 2 2 3 3 2 2 2 2 3 2 1 0 1
3 3 3 3 3 3 3 2 2 2 2 2 2 2 2 2 1 1 2 2 2 3 3 2 3 4 4 3 2 2 2 2 2 3 3 2 2 2 3 2 2 1 1
3 3 3 3 2 3 3 2 2 2 1 2 2 2 1 1 2 2 1 1 2 2 3 3 4 5 4 4 3 3 3 3 3 3 2 3 4 3 3 3 2 2 1
4 4 4 4 3 3 3 3 2 2 2 2 2 2 2 2 2 2 1 1 2 3 3 3 2 3 5 3 3 3 2 3 4 4 4 4 4 4 4 3 3 3 3
4 4 5 5 4 4 4 3 3 2 2 3 2 3 2 2 3 3 2 2 3 3 3 3 4 4 4 4 3 3 3 3 4 4 4 4 3 3 4 4 4 2 1
2 3 3 5 5 5 4 4 3 3 3 2 2 3 3 3 4 4 3 2 2 3 2 2 4 5 6 6 4 3 3 3 4 5 4 4 4 5 5 3 2 2 1
2 2 2 3 5 5 5 5 4 3 3 3 3 3 4 4 5 5 5 2 3 2 2 2 3 4 5 7 5 5 4 3 3 2 2 3 4 6 7 5 4 4 2
1 2 2 3 4 4 4 4 4 4 3 4 3 3 3 4 6 7 6 3 3 2 2 2 3 5 5 6 5 5 6 4 3 3 3 3 3 3 4 5 5 4 4
2 2 2 3 3 4 4 4 4 4 3 3 3 3 2 3 4 7 8 6 4 3 3 2 3 5 6 7 6 6 6 4 3 3 3 3 3 3 3 4 5 5 5
2 2 2 2 2 3 4 4 4 4 3 3 3 3 2 2 3 6 8 7 6 3 2 2 2 4 6 5 6 6 5 3 3 3 4 4 4 3 2 2 2 3 3
2 3 2 2 2 3 3 4 4 4 4 4 3 3 3 2 2 3 4 4 5 4 2 2 2 3 4 5 4 4 4 4 4 4 4 3 2 2 3 2 2 2 2
3 3 3 3 3 3 3 3 4 4 5 5 4 3 3 3 3 4 3 3 3 4 3 2 1 1 3 3 3 4 4 4 4 4 3 3 3 3 3 3 3 3 3
3 3 3 3 3 3 2 2 4 5 6 6 6 5 4 4 4 5 5 5 4 3 3 3 4 4 4 4 4 4 4 5 5 5 5 4 4 4 4 3 3 4 5
4 4 3 3 3 3 3 3 3 3 4 6 7 7 7 6 5 5 5 5 5 5 3 4 5 5 5 5 5 5 5 5 4 5 5 5 5 5 4 4 4 4 5
4 4 3 3 3 3 4 4 3 3 3 3 5 7 8 8 7 7 6 4 3 4 4 5 5 5 5 5 5 5 5 5 5 5 5 6 6 5 5 5 6 6 6
4 3 3 3 3 3 3 4 4 4 4 3 3 3 7 7 7 7 7 4 5 5 5 5 5 5 5 5 5 5 5 5 5 5 6 6 5 5 5 6 6 7 6
4 5 4 4 3 3 3 4 4 4 4 4 4 3 2 3 3 4 5 5 5 5 5 5 5 5 5 5 5 5 5 5 6 6 6 6 6 5 6 6 6 5 6
4 4 5 5 4 4 4 4 4 4 5 5 4 4 4 4 5 6 6 6 6 6 6 6 5 5 5 4 4 5 6 5 5 5 5 5 5 5 5 5 6 6 5
4 4 4 4 4 4 4 4 4 4 4 5 4 4 6 5 5 5 5 6 5 5 5 4 5 4 4 4 4 4 5 5 5 6 6 5 5 6 5 6 6 6 6
5 5 4 4 5 5 5 5 4 4 5 4 4 4 4 5 5 5 5 5 4 4 4 4 4 4 4 4 5 5 5 5 5 5 5 5 6 6 6 6 7 7 7
5 5 5 5 5 5 5 5 4 5 5 4 4 4 4 5 5 6 5 4 4 4 4 4 5 6 6 5 4 5 5 5 4 5 6 6 6 6 6 6 7 8 8
4 4 4 4 4 4 4 4 4 4 4 4 4 4 4 4 4 5 4 4 4 5 5 5 4 5 6 7 6 6 7 8 8 6 5 6 6 6 6 7 7 6 7
4 4 4 4 4 4 4 4 4 4 4 4 4 4 4 4 4 4 3 3 3 3 4 4 4 5 6 6 7 7 8 8 9 9 6 5 6 6 6 6 7 7 7
Wind_Direction
183 184 177 178 169 168 183 183 189 177 174 181 186 183 185 185 186 179 178 185 182 186 174 167 193 176 149 135 94 78 60 99 116 100 97 124 127 125 130 133 138 137 143
180 181 182 177 173 178 194 186 189 186 180 174 191 192 204 200 197 186 183 185 195 197 192 177 187 168 156 152 138 144 151 138 136 142 138 133 138 149 145 155 152 156 153
171 173 177 179 180 188 192 186 198 190 173 171 179 186 222 217 192 188 190 195 199 199 194 185 184 164 179 179 175 171 173 146 128 143 158 158 161 157 136 149 156 154 165
171 167 178 191 186 185 182 186 196 189 183 178 177 193 214 211 197 198 209 204 197 195 197 184 171 168 180 182 186 184 168 155 145 148 159 165 169 168 141 152 173 208 195
180 184 189 184 175 165 169 183 195 194 193 177 179 202 202 191 194 188 213 211 213 199 185 164 143 133 124 139 159 158 147 150 159 165 172 167 177 171 181 182 182 198 245
196 189 177 173 163 157 167 184 185 171 181 202 197 180 187 175 116 114 51 273 223 200 195 176 158 148 142 143 146 135 143 167 176 174 183 188 197 194 186 183 174 169 241
200 190 185 180 174 174 183 192 185 175 197 219 209 177 182 180 142 136 142 345 268 227 203 187 180 168 155 156 169 182 197 211 202 190 194 202 195 193 179 186 195 193 214
206 199 190 181 181 180 183 190 188 188 201 219 207 194 188 193 174 175 187 226 262 244 210 187 175 159 165 160 173 194 207 221 215 201 195 201 193 180 181 188 193 192 202
213 210 197 185 183 185 190 194 195 193 203 212 216 198 185 193 189 189 182 212 241 253 231 201 184 173 182 173 171 190 208 233 211 191 190 186 184 181 171 151 166 166 227
219 217 203 190 189 191 193 197 197 199 205 207 219 207 193 193 199 197 194 205 220 236 236 221 200 188 181 175 183 191 207 220 198 185 194 209 203 195 190 183 181 188 201
235 227 214 198 194 196 194 195 195 202 208 216 222 216 208 198 198 197 196 205 211 217 221 220 207 194 187 190 199 204 211 207 194 189 198 210 207 198 199 199 186 182 197
230 224 217 209 210 205 188 194 197 199 206 218 226 232 224 203 191 197 197 206 215 212 217 214 203 201 198 200 206 216 218 209 199 202 204 212 215 215 207 194 192 191 196
237 227 221 212 207 200 194 198 199 195 201 213 216 226 229 210 193 192 198 211 225 226 223 217 226 211 197 201 210 216 210 199 198 208 216 221 213 205 179 173 193 192 204
246 231 226 222 225 216 205 205 201 196 203 212 215 221 227 216 198 183 195 211 222 232 244 253 247 219 203 207 212 215 206 203 203 213 221 218 200 191 192 195 206 203 223
258 246 235 222 223 225 221 220 214 207 202 207 213 213 216 226 217 185 180 196 201 208 203 212 209 189 206 213 207 206 205 207 216 217 216 215 210 203 208 202 199 199 213
262 254 248 240 228 222 219 238 237 227 222 219 215 215 231 234 230 202 198 199 198 195 184 207 218 217 218 217 214 215 214 214 214 213 215 214 211 211 214 210 203 208 221
267 260 252 244 234 228 227 225 240 252 238 233 228 223 222 228 231 221 214 208 200 181 199 221 224 225 226 224 220 217 220 221 215 210 214 216 214 214 211 212 211 218 228
273 266 260 247 245 236 235 235 228 229 237 248 243 230 224 220 219 217 206 183 204 201 215 227 233 233 230 229 227 222 220 219 218 219 218 217 215 216 217 216 215 219 228
277 258 253 246 244 242 239 240 237 237 237 239 239 241 227 220 215 211 190 196 211 220 224 230 235 236 234 236 236 230 222 220 220 219 221 219 218 221 225 222 219 224 227
270 254 251 249 248 244 242 244 241 236 238 238 236 233 208 188 208 211 208 212 219 226 229 232 234 236 234 235 239 236 231 227 224 223 223 221 221 222 226 224 220 222 227
279 262 254 253 248 243 244 244 244 240 238 241 241 227 216 212 211 212 210 214 220 226 229 230 231 234 237 239 237 238 237 235 231 229 226 223 221 226 228 225 225 227 228
274 266 252 247 244 239 242 247 250 248 246 245 246 234 225 227 219 215 217 220 219 221 223 224 229 227 226 227 234 239 240 242 240 237 233 229 227 227 224 225 226 225 228
276 269 256 250 247 247 247 245 246 248 252 248 239 234 227 230 234 231 227 226 222 219 219 220 225 233 236 236 236 231 233 239 244 242 238 235 233 230 228 229 228 227 229
279 274 260 254 255 252 247 248 248 251 256 257 250 242 234 231 233 239 238 229 222 224 225 223 224 230 237 243 243 237 237 247 255 247 236 236 238 236 230 231 232 228 229
276 275 266 260 261 261 258 255 254 254 256 259 258 254 250 241 239 241 241 232 226 228 232 237 237 235 241 247 250 246 243 246 253 255 246 234 239 237 233 233 231 229 230
277 273 267 261 259 259 254 256 258 261 262 263 264 262 261 257 248 243 247 248 246 244 239 241 244 247 248 249 251 256 259 256 256 256 252 233 232 234 231 230 230 230 230
Height
1529 1531 1532 1533 1534 1535 1537 1538 1539 1540 1541 1542 1543 1544 1544 1545 1546 1546 1547 1547 1548 1548 1549 1549 1549 1550 1550 1551 1551 1552 1552 1553 1552 1553 1553 1553 1553 1553 1553 1553 1553 1553 1553
1527 1528 1530 1531 1532 1533 1534 1535 1537 1538 1539 1540 1541 1542 1542 1543 1544 1545 1545 1546 1546 1547 1547 1548 1548 1548 1549 1549 1549 1550 1550 1551 1551 1551 1552 1552 1553 1553 1553 1552 1552 1552 1552
1525 1526 1527 1528 1529 1530 1532 1533 1534 1535 1536 1537 1538 1539 1540 1541 1542 1542 1543 1544 1545 1545 1546 1546 1546 1547 1547 1547 1548 1548 1549 1549 1550 1550 1551 1551 1551 1551 1551 1552 1552 1551 1551
1522 1523 1524 1525 1526 1528 1529 1531 1532 1533 1534 1535 1536 1537 1538 1539 1539 1540 1541 1542 1542 1543 1544 1544 1544 1545 1545 1546 1546 1547 1547 1548 1548 1549 1549 1550 1550 1550 1550 1550 1550 1550 1550
1520 1520 1521 1523 1524 1525 1527 1528 1529 1531 1532 1533 1533 1534 1535 1536 1536 1537 1538 1539 1540 1540 1541 1542 1542 1543 1543 1544 1544 1545 1545 1546 1546 1547 1547 1547 1548 1548 1548 1548 1548 1548 1548
1517 1518 1519 1520 1521 1523 1524 1525 1527 1528 1529 1530 1530 1531 1532 1533 1533 1534 1535 1536 1537 1538 1538 1539 1539 1540 1540 1541 1542 1542 1543 1543 1543 1544 1544 1545 1545 1545 1546 1546 1546 1546 1545
1514 1515 1516 1517 1518 1519 1521 1522 1524 1525 1526 1526 1527 1528 1528 1529 1530 1531 1532 1533 1534 1535 1535 1536 1536 1537 1537 1538 1539 1540 1540 1541 1541 1542 1541 1542 1542 1542 1543 1543 1543 1543 1543
1511 1512 1513 1514 1515 1516 1518 1519 1520 1521 1522 1523 1524 1524 1525 1526 1526 1527 1528 1529 1530 1531 1532 1532 1533 1533 1534 1535 1535 1536 1537 1537 1538 1538 1539 1539 1540 1540 1540 1541 1541 1541 1541
1508 1509 1510 1511 1511 1513 1514 1515 1516 1517 1518 1519 1520 1521 1521 1522 1523 1523 1524 1525 1526 1527 1528 1529 1529 1530 1530 1531 1531 1532 1533 1534 1535 1535 1536 1536 1537 1537 1537 1538 1538 1538 1538
1505 1506 1507 1507 1508 1509 1510 1511 1512 1513 1514 1516 1516 1517 1518 1518 1519 1520 1520 1521 1521 1522 1523 1524 1525 1526 1526 1527 1527 1528 1528 1529 1530 1531 1532 1533 1533 1534 1534 1534 1535 1535 1534
1502 1502 1503 1504 1504 1505 1506 1507 1509 1510 1511 1512 1513 1513 1514 1514 1515 1516 1516 1517 1517 1518 1518 1519 1520 1522 1522 1523 1524 1524 1525 1526 1526 1527 1527 1528 1529 1530 1530 1530 1531 1531 1531
1498 1499 1499 1500 1501 1501 1502 1503 1504 1506 1507 1508 1508 1509 1510 1511 1511 1511 1512 1513 1513 1514 1514 1515 1516 1517 1518 1519 1519 1520 1521 1522 1522 1523 1523 1524 1524 1525 1525 1526 1527 1527 1527
1495 1495 1495 1496 1497 1497 1498 1499 1500 1501 1502 1503 1504 1505 1505 1506 1507 1507 1508 1508 1509 1510 1510 1511 1512 1513 1513 1514 1515 1516 1516 1517 1517 1518 1518 1519 1520 1521 1521 1522 1522 1522 1522
1490 1491 1491 1492 1492 1493 1494 1495 1495 1496 1497 1498 1499 1500 1501 1501 1502 1503 1503 1503 1504 1505 1506 1506 1507 1508 1508 1509 1510 1511 1511 1512 1512 1513 1514 1514 1515 1516 1516 1517 1517 1517 1517
1486 1487 1487 1488 1488 1489 1490 1490 1491 1492 1493 1494 1494 1496 1496 1496 1497 1498 1498 1499 1499 1500 1501 1501 1502 1503 1503 1503 1504 1505 1506 1507 1507 1508 1509 1509 1510 1510 1511 1511 1512 1512 1512
1482 1483 1483 1483 1484 1484 1485 1486 1487 1488 1489 1489 1490 1491 1491 1492 1493 1493 1494 1494 1495 1496 1496 1496 1496 1497 1497 1498 1498 1499 1500 1501 1501 1502 1503 1504 1504 1504 1505 1506 1506 1507 1506
1479 1479 1479 1479 1479 1480 1480 1481 1481 1483 1484 1484 1485 1486 1486 1487 1488 1488 1489 1489 1490 1490 1490 1490 1490 1491 1491 1492 1493 1493 1494 1495 1496 1496 1497 1497 1498 1499 1499 1500 1500 1501 1500
1475 1474 1474 1474 1474 1475 1476 1476 1477 1477 1478 1478 1479 1480 1481 1482 1482 1483 1484 1484 1484 1484 1484 1484 1484 1485 1486 1486 1487 1487 1488 1489 1489 1490 1491 1491 1492 1493 1493 1493 1494 1494 1494
1470 1469 1469 1469 1470 1470 1471 1472 1472 1472 1473 1473 1474 1474 1475 1476 1476 1477 1478 1478 1477 1478 1478 1478 1479 1479 1480 1480 1481 1481 1482 1482 1483 1484 1484 1485 1486 1486 1486 1487 1487 1488 1488
1464 1464 1464 1464 1465 1465 1466 1466 1466 1467 1467 1468 1468 1469 1470 1470 1470 1470 1471 1471 1471 1472 1472 1472 1473 1473 1474 1474 1475 1475 1475 1476 1476 1477 1477 1478 1479 1480 1480 1481 1481 1481 1481
1459 1459 1458 1459 1459 1460 1460 1461 1461 1461 1462 1462 1463 1463 1464 1464 1464 1464 1465 1465 1465 1466 1466 1467 1467 1467 1467 1468 1468 1468 1469 1469 1470 1470 1471 1471 1472 1472 1473 1474 1475 1475 1475
1454 1453 1453 1453 1454 1454 1455 1455 1456 1456 1457 1457 1457 1458 1458 1458 1458 1458 1459 1459 1460 1460 1461 1461 1461 1461 1461 1461 1461 1461 1462 1462 1463 1463 1464 1464 1464 1465 1466 1467 1467 1468 1468
1449 1448 1448 1448 1448 1449 1449 1450 1450 1451 1451 1451 1452 1452 1452 1452 1452 1452 1453 1453 1454 1454 1455 1455 1455 1455 1455 1455 1455 1455 1455 1455 1456 1456 1457 1457 1457 1458 1459 1459 1460 1460 1461
1443 1443 1442 1442 1443 1443 1444 1444 1445 1445 1445 1445 1446 1446 1446 1446 1446 1446 1447 1447 1448 1448 1449 1449 1449 1449 1449 1449 1449 1449 1449 1449 1449 1450 1450 1450 1450 1450 1451 1451 1452 1453 1453
1438 1437 1437 1437 1437 1438 1438 1438 1439 1439 1439 1439 1439 1439 1439 1439 1440 1440 1440 1441 1441 1441 1442 1442 1442 1442 1442 1442 1442 1442 1442 1442 1442 1443 1442 1443 1442 1443 1443 1443 1444 1445 1446
1433 1433 1433 1433 1433 1433 1433 1433 1433 1433 1433 1433 1433 1433 1433 1433 1433 1434 1434 1434 1434 1435 1435 1435 1435 1435 1435 1435 1435 1435 1435 1435 1435 1435 1435 1435 1435 1435 1436 1436 1436 1437 1438